User: anonymous   Login
Location: Anjeux
(47.8815°N, 6.2076°E)
Time: 13:46:50
(UTC+00:00)
Language:

SO-50 - Orbit

View from above orbital plane
View from above orbital plane
View from above satellite
View from above satellite

Ground track
Ground track

The orbit data is extracted from the following two-line orbital elements,

1 27607U 02058C   21330.93396174  .00000082  00000-0  32213-4 0  9993
2 27607  64.5543 201.4529 0060816 336.4350  23.3967 14.75837034 18482
Epoch (UTC): 26 November 2021 22:24:54
Eccentricity: 0.0060816
inclination: 64.5543°
perigee height: 600 km
apogee height: 685 km
right ascension of ascending node: 201.4529°
argument of perigee: 336.4350°
revolutions per day: 14.75837034
mean anomaly at epoch: 23.3967°
orbit number at epoch: 1848

The dashed part of the orbit path shows where the satellite is in the earth's shadow,  

DLR